Date,TemperatureHighF,TemperatureAvgF,TemperatureLowF,DewpointHighF,DewpointAvgF,DewpointLowF,HumidityHigh,HumidityAvg,HumidityLow,PressureMaxIn,PressureMinIn,WindSpeedMaxMPH,WindSpeedAvgMPH,GustSpeedMaxMPH,PrecipitationSumIn
2013-3-1,31.5,27.4,24.8,21.0,17.5,11.7,79,66,53,29.21,29.06,10,2,10,0.00
2013-3-2,30.7,25.7,19.4,16.1,13.6,10.4,68,60,51,29.21,29.09,10,1,10,0.00
2013-3-3,37.0,29.8,20.8,21.6,16.8,11.3,68,58,46,29.09,28.79,12,3,12,0.00
2013-3-4,40.5,34.5,29.7,29.2,25.3,21.3,83,70,54,28.85,28.67,13,4,13,0.00
2013-3-5,34.0,30.5,26.4,30.2,22.2,15.7,89,71,58,29.18,28.85,19,6,19,0.00
2013-3-6,33.3,27.3,21.9,19.0,16.2,13.3,76,63,50,29.32,29.18,12,2,12,0.00
2013-3-7,35.8,27.0,17.4,20.8,17.0,10.6,75,66,53,29.26,29.12,10,1,10,0.00
2013-3-8,44.1,34.8,24.6,31.9,25.3,18.6,82,69,55,29.18,28.94,10,2,10,0.00
2013-3-9,42.8,39.9,38.1,42.3,36.9,31.3,98,89,74,28.94,28.53,10,1,10,0.00
2013-3-10,39.4,35.6,32.2,38.9,34.2,30.4,98,95,91,28.67,28.56,17,3,17,0.00
2013-3-11,32.2,28.2,25.0,30.2,21.8,16.2,93,77,62,28.85,28.61,0,0,0,0.00
2013-3-12,34.2,27.3,21.9,23.5,17.6,13.5,77,67,58,29.15,28.85,25,2,25,0.00
2013-3-13,32.7,25.8,17.8,17.2,13.8,9.4,70,61,50,29.35,29.15,6,0,6,0.00
2013-3-14,47.8,34.7,28.4,33.4,23.4,16.9,74,63,54,29.21,28.97,8,0,8,0.00
2013-3-15,57.2,43.1,33.6,43.5,35.3,27.2,84,74,59,28.97,28.61,6,0,6,0.00
2013-3-16,40.8,34.4,28.8,34.8,24.6,17.2,86,68,53,29.09,28.70,15,3,15,0.00
2013-3-17,38.7,31.4,23.4,25.9,19.3,14.2,70,61,52,29.09,28.73,15,4,15,0.00
2013-3-18,35.6,31.5,24.1,32.1,21.1,9.7,88,66,50,28.91,28.64,20,5,20,0.00
2013-3-19,37.9,27.4,18.7,17.6,11.3,5.6,64,51,40,29.15,28.88,14,3,14,0.00
2013-3-20,27.7,22.7,16.2,16.4,6.7,-0.1,63,50,43,29.23,29.03,17,4,17,0.00
2013-3-21,34.2,22.8,15.3,13.0,7.4,1.8,58,51,40,29.03,28.85,9,0,9,0.00
2013-3-22,37.9,29.8,20.5,21.2,14.8,11.3,69,54,41,28.97,28.88,8,0,8,0.00
2013-3-23,37.4,32.2,28.9,28.2,20.2,15.2,87,62,41,29.03,28.91,10,1,10,0.00
2013-3-24,32.7,30.2,28.4,26.8,24.8,22.9,89,80,74,28.94,28.79,14,3,14,0.00
2013-3-25,36.3,31.3,27.1,26.1,21.4,16.2,90,68,44,29.15,28.88,15,3,15,0.00
2013-3-26,36.9,30.5,22.6,20.9,17.3,13.0,69,58,48,29.23,29.15,10,2,10,0.00
2013-3-27,44.2,35.9,25.9,25.2,21.6,17.5,72,57,43,29.23,29.15,8,0,8,0.00
2013-3-28,53.8,42.9,31.3,32.3,27.8,22.7,74,56,41,29.21,29.09,13,1,13,0.00
2013-3-29,61.3,48.8,36.3,36.0,31.6,28.5,75,53,36,29.18,29.03,10,1,10,0.00
2013-3-30,59.0,51.8,47.1,50.2,41.9,31.3,87,70,48,29.03,28.76,9,1,9,0.00
2013-3-31,52.0,45.1,35.1,42.7,31.7,18.3,83,61,35,29.00,28.79,22,3,22,0.00